TimeMDT,TemperatureF,Dew PointF,Humidity,Sea Level PressureIn,VisibilityMPH,Wind Direction,Wind SpeedMPH,Gust SpeedMPH,PrecipitationIn,Events,Conditions,WindDirDegrees,DateUTC
12:53 AM,46.0,30.9,56,29.83,10.0,South,18.4,-,N/A,,Clear,180,2013-10-10 06:53:00
1:53 AM,46.0,30.9,56,29.82,10.0,SSE,15.0,-,N/A,,Clear,160,2013-10-10 07:53:00
2:53 AM,44.1,30.9,60,29.81,10.0,SSE,15.0,-,N/A,,Clear,150,2013-10-10 08:53:00
3:53 AM,46.0,30.0,54,29.77,10.0,South,18.4,-,N/A,,Clear,170,2013-10-10 09:53:00
4:53 AM,45.0,30.0,56,29.75,10.0,SSE,16.1,-,N/A,,Clear,160,2013-10-10 10:53:00
5:53 AM,45.0,30.0,56,29.74,10.0,South,5.8,-,N/A,,Clear,170,2013-10-10 11:53:00
6:53 AM,46.0,30.9,56,29.74,10.0,SSE,11.5,-,N/A,,Partly Cloudy,160,2013-10-10 12:53:00
7:53 AM,43.0,33.1,68,29.76,10.0,Calm,Calm,-,N/A,,Scattered Clouds,0,2013-10-10 13:53:00
8:53 AM,46.0,34.0,63,29.74,10.0,Calm,Calm,-,N/A,,Clear,0,2013-10-10 14:53:00
9:53 AM,48.0,36.0,63,29.72,10.0,ENE,8.1,-,N/A,,Mostly Cloudy,60,2013-10-10 15:53:00
10:53 AM,50.0,35.1,57,29.71,10.0,Variable,3.5,-,N/A,,Partly Cloudy,0,2013-10-10 16:53:00
11:53 AM,52.0,39.0,61,29.67,10.0,East,9.2,-,N/A,,Mostly Cloudy,100,2013-10-10 17:53:00
12:53 PM,52.0,37.9,59,29.65,10.0,Calm,Calm,-,N/A,,Mostly Cloudy,0,2013-10-10 18:53:00
1:53 PM,54.0,37.9,55,29.62,10.0,North,6.9,-,N/A,,Mostly Cloudy,350,2013-10-10 19:53:00
2:53 PM,52.0,39.0,61,29.62,10.0,NNW,17.3,24.2,N/A,,Overcast,340,2013-10-10 20:53:00
3:53 PM,50.0,39.0,66,29.62,10.0,NNW,10.4,26.5,N/A,,Mostly Cloudy,340,2013-10-10 21:53:00
4:53 PM,48.0,37.9,68,29.64,10.0,North,13.8,23.0,N/A,,Overcast,10,2013-10-10 22:53:00
5:53 PM,48.0,39.0,71,29.65,10.0,North,20.7,25.3,N/A,,Overcast,350,2013-10-10 23:53:00
6:53 PM,48.0,36.0,63,29.64,10.0,WNW,20.7,28.8,N/A,,Overcast,300,2013-10-11 00:53:00
7:53 PM,46.9,37.0,68,29.65,10.0,NNW,21.9,26.5,N/A,,Overcast,340,2013-10-11 01:53:00
8:53 PM,46.9,37.0,68,29.63,10.0,North,23.0,34.5,N/A,,Mostly Cloudy,350,2013-10-11 02:53:00
9:53 PM,46.9,37.0,68,29.61,10.0,NNW,21.9,34.5,N/A,,Overcast,340,2013-10-11 03:53:00
10:53 PM,46.9,37.0,68,29.62,10.0,NNW,26.5,39.1,N/A,,Overcast,340,2013-10-11 04:53:00
11:53 PM,46.9,37.0,68,29.60,10.0,NNW,21.9,34.5,0.00,Rain,Light Rain,330,2013-10-11 05:53:00